TimeEST,TemperatureF,Dew PointF,Humidity,Sea Level PressureIn,VisibilityMPH,Wind Direction,Wind SpeedMPH,Gust SpeedMPH,PrecipitationIn,Events,Conditions,WindDirDegrees,DateUTC
12:15 AM,37.4,37.4,100,29.65,10.0,West,19.6,25.3,N/A,,Overcast,270,2013-11-10 05:15:00
12:35 AM,37.4,35.6,93,29.66,10.0,West,16.1,21.9,N/A,,Overcast,270,2013-11-10 05:35:00
12:55 AM,37.4,35.6,93,29.66,10.0,West,17.3,24.2,N/A,,Overcast,270,2013-11-10 05:55:00
1:15 AM,37.4,35.6,93,29.68,10.0,West,16.1,19.6,N/A,,Overcast,270,2013-11-10 06:15:00
1:35 AM,37.4,35.6,93,29.68,10.0,West,13.8,21.9,N/A,,Overcast,280,2013-11-10 06:35:00
1:55 AM,37.4,35.6,93,29.69,10.0,West,13.8,-,N/A,,Overcast,280,2013-11-10 06:55:00
2:15 AM,37.4,35.6,93,29.69,9.0,West,12.7,19.6,N/A,,Overcast,270,2013-11-10 07:15:00
2:35 AM,37.4,35.6,93,29.70,10.0,West,12.7,-,N/A,,Overcast,270,2013-11-10 07:35:00
2:55 AM,37.4,37.4,100,29.70,8.0,West,16.1,24.2,N/A,,Overcast,280,2013-11-10 07:55:00
3:15 AM,37.4,37.4,100,29.71,10.0,West,15.0,20.7,N/A,,Overcast,280,2013-11-10 08:15:00
3:35 AM,37.4,37.4,100,29.71,10.0,West,17.3,21.9,N/A,,Overcast,280,2013-11-10 08:35:00
3:55 AM,37.4,37.4,100,29.72,10.0,West,16.1,21.9,N/A,,Overcast,280,2013-11-10 08:55:00
4:15 AM,35.6,35.6,100,29.73,8.0,WNW,12.7,26.5,0.02,,Overcast,300,2013-11-10 09:15:00
4:35 AM,35.6,35.6,100,29.74,10.0,West,18.4,24.2,0.03,,Overcast,280,2013-11-10 09:35:00
4:55 AM,35.6,33.8,93,29.75,9.0,West,18.4,27.6,0.03,,Overcast,280,2013-11-10 09:55:00
5:15 AM,35.6,33.8,93,29.77,5.0,WNW,18.4,23.0,0.01,,Overcast,290,2013-11-10 10:15:00
5:35 AM,35.6,33.8,93,29.78,10.0,WNW,16.1,23.0,0.03,,Overcast,300,2013-11-10 10:35:00
5:55 AM,35.6,35.6,100,29.79,7.0,WNW,16.1,24.2,0.04,,Overcast,300,2013-11-10 10:55:00
6:15 AM,35.6,35.6,100,29.80,10.0,NW,19.6,25.3,N/A,,Overcast,310,2013-11-10 11:15:00
6:35 AM,35.6,35.6,100,29.81,9.0,WNW,20.7,28.8,N/A,,Overcast,300,2013-11-10 11:35:00
6:55 AM,35.6,35.6,100,29.82,8.0,WNW,17.3,28.8,N/A,,Overcast,300,2013-11-10 11:55:00
7:15 AM,35.6,35.6,100,29.84,9.0,WNW,19.6,26.5,0.01,,Overcast,300,2013-11-10 12:15:00
7:35 AM,33.8,33.8,100,29.85,5.0,NW,19.6,28.8,0.01,,Overcast,310,2013-11-10 12:35:00
7:55 AM,33.8,33.8,100,29.88,4.0,NW,17.3,-,0.01,,Overcast,310,2013-11-10 12:55:00
8:15 AM,35.6,35.6,100,29.89,7.0,NW,18.4,27.6,N/A,,Overcast,310,2013-11-10 13:15:00
8:35 AM,35.6,33.8,93,29.91,7.0,NW,19.6,31.1,N/A,,Overcast,310,2013-11-10 13:35:00
8:55 AM,35.6,35.6,100,29.93,9.0,NW,16.1,33.4,N/A,,Overcast,310,2013-11-10 13:55:00
9:15 AM,35.6,33.8,93,29.94,8.0,NW,20.7,26.5,N/A,,Overcast,310,2013-11-10 14:15:00
9:35 AM,35.6,33.8,93,29.95,3.0,NW,20.7,27.6,0.01,,Overcast,320,2013-11-10 14:35:00
9:55 AM,35.6,33.8,93,29.97,4.0,NW,17.3,23.0,0.01,,Overcast,320,2013-11-10 14:55:00
10:15 AM,35.6,33.8,93,29.99,4.0,NW,16.1,26.5,N/A,,Overcast,310,2013-11-10 15:15:00
10:35 AM,35.6,33.8,93,30.01,9.0,WNW,15.0,26.5,N/A,,Mostly Cloudy,300,2013-11-10 15:35:00
10:55 AM,37.4,33.8,87,30.01,10.0,NW,20.7,28.8,N/A,,Overcast,310,2013-11-10 15:55:00
11:15 AM,37.4,32.0,81,30.02,10.0,NW,16.1,24.2,N/A,,Overcast,310,2013-11-10 16:15:00
11:35 AM,37.4,30.2,75,30.02,10.0,NW,18.4,29.9,N/A,,Overcast,310,2013-11-10 16:35:00
11:55 AM,35.6,33.8,93,30.04,9.0,WNW,17.3,24.2,N/A,,Overcast,300,2013-11-10 16:55:00
12:15 PM,35.6,33.8,93,30.04,10.0,WNW,17.3,24.2,N/A,,Overcast,290,2013-11-10 17:15:00
12:35 PM,35.6,33.8,93,30.05,10.0,WNW,15.0,19.6,N/A,,Overcast,290,2013-11-10 17:35:00
12:55 PM,35.6,32.0,87,30.05,10.0,NW,13.8,23.0,N/A,,Overcast,310,2013-11-10 17:55:00
1:15 PM,37.4,30.2,75,30.05,10.0,WNW,19.6,28.8,N/A,,Overcast,300,2013-11-10 18:15:00
1:35 PM,37.4,30.2,75,30.06,10.0,WNW,13.8,21.9,N/A,,Overcast,300,2013-11-10 18:35:00
1:55 PM,37.4,30.2,75,30.06,10.0,NW,15.0,19.6,N/A,,Overcast,320,2013-11-10 18:55:00
2:15 PM,37.4,30.2,75,30.07,10.0,NW,15.0,25.3,N/A,,Overcast,310,2013-11-10 19:15:00
2:35 PM,37.4,28.4,70,30.07,10.0,NW,16.1,21.9,N/A,,Overcast,310,2013-11-10 19:35:00
2:55 PM,37.4,30.2,75,30.08,10.0,WNW,16.1,23.0,N/A,,Overcast,290,2013-11-10 19:55:00
3:15 PM,35.6,32.0,87,30.09,10.0,West,11.5,20.7,N/A,,Overcast,280,2013-11-10 20:15:00
3:35 PM,37.4,32.0,81,30.09,10.0,WNW,15.0,-,N/A,,Overcast,290,2013-11-10 20:35:00
3:55 PM,37.4,28.4,70,30.10,10.0,WNW,12.7,21.9,N/A,,Overcast,290,2013-11-10 20:55:00
4:15 PM,37.4,28.4,70,30.11,10.0,West,13.8,20.7,N/A,,Overcast,280,2013-11-10 21:15:00
4:35 PM,37.4,28.4,70,30.11,10.0,West,12.7,-,N/A,,Overcast,280,2013-11-10 21:35:00
4:55 PM,35.6,28.4,75,30.12,10.0,West,11.5,-,N/A,,Overcast,280,2013-11-10 21:55:00
5:15 PM,35.6,28.4,75,30.13,10.0,West,9.2,-,N/A,,Overcast,270,2013-11-10 22:15:00
5:35 PM,35.6,30.2,81,30.13,10.0,West,8.1,-,N/A,,Overcast,260,2013-11-10 22:35:00
5:55 PM,35.6,30.2,81,30.13,10.0,West,5.8,-,N/A,,Overcast,280,2013-11-10 22:55:00
6:15 PM,35.6,30.2,81,30.13,10.0,West,6.9,-,N/A,,Overcast,260,2013-11-10 23:15:00
6:35 PM,35.6,30.2,81,30.13,10.0,WSW,5.8,-,N/A,,Overcast,250,2013-11-10 23:35:00
6:55 PM,35.6,30.2,81,30.12,10.0,WSW,6.9,-,N/A,,Overcast,250,2013-11-10 23:55:00
7:15 PM,33.8,30.2,87,30.12,10.0,WSW,5.8,-,N/A,,Mostly Cloudy,240,2013-11-11 00:15:00
7:35 PM,33.8,30.2,87,30.11,10.0,WSW,5.8,-,N/A,,Scattered Clouds,240,2013-11-11 00:35:00
7:55 PM,33.8,30.2,87,30.11,10.0,WSW,5.8,-,N/A,,Mostly Cloudy,250,2013-11-11 00:55:00
8:15 PM,33.8,32.0,93,30.10,10.0,WSW,5.8,-,N/A,,Mostly Cloudy,250,2013-11-11 01:15:00
8:35 PM,33.8,30.2,87,30.09,10.0,WSW,4.6,-,N/A,,Clear,240,2013-11-11 01:35:00
8:55 PM,32.0,30.2,93,30.08,10.0,SW,3.5,-,N/A,,Clear,230,2013-11-11 01:55:00
9:15 PM,32.0,30.2,93,30.07,10.0,Calm,Calm,-,N/A,,Clear,0,2013-11-11 02:15:00
9:35 PM,30.2,28.4,93,30.07,10.0,SSW,4.6,-,N/A,,Clear,210,2013-11-11 02:35:00
9:55 PM,30.2,28.4,93,30.06,10.0,South,4.6,-,N/A,,Clear,170,2013-11-11 02:55:00
10:15 PM,30.2,28.4,93,30.05,10.0,SSW,5.8,-,N/A,,Clear,200,2013-11-11 03:15:00
10:35 PM,32.0,30.2,93,30.03,10.0,South,3.5,-,N/A,,Clear,190,2013-11-11 03:35:00
10:55 PM,33.8,30.2,87,30.02,10.0,South,3.5,-,N/A,,Mostly Cloudy,180,2013-11-11 03:55:00
11:15 PM,33.8,30.2,87,30.01,10.0,South,4.6,-,N/A,,Overcast,190,2013-11-11 04:15:00
11:35 PM,33.8,32.0,93,30.00,10.0,South,3.5,-,N/A,,Overcast,190,2013-11-11 04:35:00
11:55 PM,35.6,32.0,87,29.99,10.0,South,5.8,-,N/A,,Overcast,190,2013-11-11 04:55:00